Regional Weather Roundup
Issued by NWS

Home | Current Version | Previous Version | Text Only | Print | Product List | Glossary Off
Versions: 1 2 3 4 5 6 7 8 9 10 11 12 13 14 15 16 17 18 19 20 21 22 23 24 25 26 27 28 29 30 31 32 33 34 35 36 37 38 39 40 41 42 43 44 45 46 47 48 49 50

000
ASUS43 KDMX 031307
RWRIA

WEATHER ROUNDUP FOR IOWA
NATIONAL WEATHER SERVICE DES MOINES IA
800 AM CDT MON AUG 03 2015

NOTE: "FAIR" INDICATES FEW OR NO CLOUDS BELOW 12,000 FEET WITH NO
SIGNIFICANT WEATHER AND/OR OBSTRUCTIONS TO VISIBILITY.

* - THESE STATIONS ARE NOT NWS STATIONS...THUS NOT UNDER NWS
QUALITY CONTROL.  THEY ALSO DO NOT REPORT WEATHER SUCH
AS PRECIPITATION OR FOG.

IAZ001>003-012>014-020>022-031>034-043>046-031400-
   NORTHWEST IOWA

CITY           SKY/WX    TMP DP  RH WIND       PRES   REMARKS
CARROLL *      SUNNY     64  63  94 CALM      29.97R
CHEROKEE *     SUNNY     61  61 100 CALM      29.98S
DENISON *      SUNNY     64  63  94 NE5       29.95F
LE MARS *      SUNNY     61  61 100 CALM      30.00R
ORANGE CITY *  SUNNY     61  57  88 CALM      29.99R
SHELDON *      SUNNY     61  57  88 CALM      29.98R
SPENCER        SUNNY     60  54  80 CALM      29.98S
STORM LAKE *   SUNNY     64  59  82 CALM      29.99R
$$

IAZ055>058-069>071-079>083-090>094-031400-
   SOUTHWEST IOWA

CITY           SKY/WX    TMP DP  RH WIND       PRES   REMARKS
ATLANTIC *     SUNNY     66  63  88 NE3       29.96S
AUDUBON *      SUNNY     66  61  82 CALM      29.98R
CLARINDA *     CLOUDY    70  66  88 CALM      29.97R
COUNCIL BLFS * CLOUDY    68  61  77 NE8       29.96R
CRESTON *      CLOUDY    68  63  83 NE5       29.98R
HARLAN  *      SUNNY     66  66 100 NE3       30.00S
LAMONI         LGT RAIN  70  63  78 NE7       29.95S
RED OAK *      CLOUDY    68  64  88 NE5       29.96R
SHENANDOAH *   CLOUDY    72  64  78 NE5       29.96R
$$

IAZ047>049-059>061-072>074-084-031400-
   CENTRAL IOWA

CITY           SKY/WX    TMP DP  RH WIND       PRES   REMARKS
AMES           SUNNY     66  60  81 NW3       29.95R
ANKENY *       SUNNY     68  59  73 CALM      29.95R
CHARITON *     MOSUNNY   68  61  77 VRB3      29.95S
DES MOINES     MOSUNNY   71  58  63 N3        29.94R
GRINNELL*      SUNNY     63  57  82 NW6       29.94S
KNOXVILLE *    MOSUNNY   70  55  60 VRB6      29.93S
MARSHALLTOWN   SUNNY     63  59  87 NW3       29.93R
PELLA *        SUNNY     68  63  83 CALM      29.95R
PERRY *          N/A     66  61  82 CALM      29.96S
$$

IAZ004>006-015-016-023>025-035-036-031400-
   NORTH CENTRAL IOWA

CITY           SKY/WX    TMP DP  RH WIND       PRES   REMARKS
ALGONA *       SUNNY     63  57  82 CALM      29.97S
CLARION *      SUNNY     61  57  88 NW3       29.96S
ESTHERVILLE    SUNNY     59  55  87 SW6       29.97S
FORT DODGE *   SUNNY     63  57  82 CALM      29.97S
MASON CITY     SUNNY     62  58  86 W7        29.96S
FOREST CITY *  SUNNY     59  57  94 W3        29.96S
IOWA FALLS *     N/A     63  59  88 NW5       29.96S
$$

IAZ007>011-017>019-026>030-037>042-050>054-066-031400-
   NORTHEAST IOWA

CITY           SKY/WX    TMP DP  RH WIND       PRES   REMARKS
CEDAR RAPIDS   SUNNY     64  60  87 NW6       29.91R
CHARLES CITY * SUNNY     61  59  94 CALM      29.94S
CLINTON *      SUNNY     66  61  82 N7        29.91R
DECORAH *      SUNNY     61  55  82 VRB5      29.92R
DUBUQUE        SUNNY     67  56  67 NW8       29.90S
MONTICELLO *   SUNNY     66  59  77 N7        29.90S
OELWEIN *      SUNNY     61  57  88 NW3       29.94
WATERLOO       SUNNY     63  58  83 NW6       29.93R
$$

IAZ064-065-067-068-078-031400-
   EAST CENTRAL IOWA

CITY           SKY/WX    TMP DP  RH WIND       PRES   REMARKS
DAVENPORT      SUNNY     67  61  81 N8        29.89R
IOWA CITY      SUNNY     70  57  63 N9        29.91S
MT. PLEASANT * SUNNY     72  57  60 N7        29.91R
MUSCATINE *    SUNNY     68  61  77 N9        29.89S
QUAD CITIES    SUNNY     71  60  68 N9        29.87R
$$

IAZ062-063-075>077-085>089-095>099-031400-
   SOUTHEAST IOWA

CITY           SKY/WX    TMP DP  RH WIND       PRES   REMARKS
BURLINGTON     SUNNY     70  63  78 N8        29.89R
FAIRFIELD *    SUNNY     68  59  73 N7        29.92R
FORT MADISON * SUNNY     68  64  88 N6        29.91R
KEOKUK *       SUNNY     70  63  78 NW7       29.91R
OSKALOOSA *      N/A     66  59  77 N3        29.94R
CENTERVILLE *  MOSUNNY   68  63  83 N8        29.95S
OTTUMWA        SUNNY     68  60  75 NW7       29.92R
WASHINGTON *   SUNNY     68  61  77 N10       29.92R
$$

ABBREVIATIONS USED IN REMARKS
   TC - TEMPERATURES IN CELSIUS
  WCI - WIND CHILL INDEX
   HX - HEAT INDEX
  VSB - VISIBILITY
$$




USA.gov is the U.S. government's official web portal to all federal, state and local government web resources and services.